Regional Weather Roundup
Issued by NWS Green Bay, WI

Home | Current Version | Previous Version | Graphics & Text | Print | Product List | Glossary Off
Versions: 1 2 3 4 5 6 7 8 9 10 11 12 13 14 15 16 17 18 19 20 21 22 23 24 25 26 27 28 29 30 31 32 33 34 35 36 37 38 39 40 41 42 43 44 45 46 47 48 49 50

000
ASUS43 KGRB 211159
RWRGRB

NORTH-CENTRAL AND NORTHEAST WISCONSIN REGIONAL WEATHER ROUNDUP
NATIONAL WEATHER SERVICE GREEN BAY WI
700 AM CDT TUE OCT 21 2014

WIZ005-009-010>012-018-019-211300-
NORTH CENTRAL WISCONSIN

CITY           SKY/WX    TMP DP  RH WIND       PRES   REMARKS
IRONWOOD       CLOUDY    37  36  93 E7        30.20R
MANITOWISH WTR NOT AVBL
ARBOR VITAE    NOT AVBL
EAGLE RIVER    NOT AVBL
LAND O LAKES   NOT AVBL
RHINELANDER    CLOUDY    38  34  85 NE5       30.19R
PHILLIPS       NOT AVBL
ANTIGO         NOT AVBL
TOMAHAWK       NOT AVBL
MERRILL        NOT AVBL
$$

WIZ013-073-211300-
NORTHEAST WISCONSIN

CITY           SKY/WX    TMP DP  RH WIND       PRES   REMARKS
IRON MOUNTAIN  CLOUDY    40  35  83 N8        30.17R
MARINETTE      CLOUDY    43  37  81 N7        30.16R
$$

WIZ017-030-035>037-045-211300-
CENTRAL WISCONSIN

CITY           SKY/WX    TMP DP  RH WIND       PRES   REMARKS
MEDFORD        NOT AVBL
WAUSAU         CLOUDY    41  34  76 NE7       30.17R
MOSINEE        NOT AVBL
MARSHFIELD     CLOUDY    40  35  83 NE8       30.17R
WISC RAPIDS    MOCLDY    39  34  82 NE5       30.19R
STEVENS POINT  NOT AVBL
WAUPACA        NOT AVBL
SHAWANO        NOT AVBL
CLINTONVILLE   NOT AVBL
$$

WIZ038-039-048-051-211300-
FOX VALLEY

CITY           SKY/WX    TMP DP  RH WIND       PRES   REMARKS
NWS GREEN BAY  CLOUDY    43  37  79 N10       30.16R
APPLETON       MOCLDY    43  36  75 N8        30.16R
OSHKOSH        CLOUDY    45  37  73 N12       30.16R
FOND DU LAC    CLOUDY    45  37  73 NE16      30.15R
$$

WIZ022-050-052-211300-
EAST CENTRAL WISCONSIN

CITY           SKY/WX    TMP DP  RH WIND       PRES   REMARKS
STURGEON BAY   CLOUDY    45  37  76 N12       30.14R
MANITOWOC      NOT AVBL
SHEBOYGAN      CLOUDY    45  37  73 N12       30.13R
$$

LMZ563-521-522-541>543-211300-
LAKESHORE

STATION/POSITION TIME  TEMP    WIND        PRES    VSBY  WAVE
                       AIR SEA DIR/SP/G                  HT/PER
                 (UTC) (F)     (DEG/KT/KT) (MB)    (MI)  (FT/S)
SHEBOYGAN LKSHOR 1100   46 50  340/ 14/ 18 1020.0R
KEWAUNEE LKSHORE 1100   45     360/  6/ 13 1019.3R
NORTHPORT PIER   1100   46     360/ 16/ 23 1020.7R
N MID LAKE BUOY  1100   46 51  360/ 19/ 23 1019.2R         4/ 5
CHAMBERS ISLAND  1100   45     330/ 17/ 25 1020.7R
MENOMINEE LKSHOR 1100   45     360/ 23/ 26 1021.5R
$$


USA.gov is the U.S. government's official web portal to all federal, state and local government web resources and services.